Other Surface Observations
Issued by NWS Charleston, SC

Home | Current Version | Previous Version | Text Only | Print | Product List | Glossary On
Versions: 1 2 3 4 5 6 7 8 9 10 11 12 13 14 15 16 17 18 19 20 21 22 23 24 25 26 27 28 29 30 31 32 33 34 35 36 37 38 39 40 41 42 43 44 45 46 47 48 49 50
000
SXUS52 KCHS 182227
OSOCHS

Marine Observations
National Weather Service Charleston SC
500 PM EST THU JAN 18 2018

...Downtown Charleston and Harbor...

CITY           SKY/WX    TMP DP  RH WIND       PRES   REMARKS
Waterfront Prk NOT AVBL

...Lake Moultrie...

CITY           SKY/WX    TMP DP  RH WIND       PRES   REMARKS
Pinopolis        N/A     41  19  42 NW7       30.23S

...Lake and Supplemental Coastal Observations...

STATION/POSITION TIME  TEMP    WIND        PRES    WAVE   SWELL
                       AIR SEA DIR/SP/G            HT/PER HT/PER/DIR
                 (UTC) (F)     (DEG/KT/KT) (MB)    (FT/S) (FT/S/D)
Fort Pulaski     2200   46 46  300/  7/  9 1026.9
Sapelo Island    2200   49     330/  6     1027.0
Winyah Bay       2130   42     330/  7     1025.0S
Lake Murray      2220   47     290/  2/  4 1024.7S
ACE Basin NERRS  2145   45     300/  2     1026.0S


...C-MAN and Buoy Observations...

STATION/POSITION TIME  TEMP    WIND        PRES    WAVE   SWELL
                       AIR SEA DIR/SP/G            HT/PER HT/PER/DIR
                 (UTC) (F)     (DEG/KT/KT) (MB)    (FT/S) (FT/S/D)
Buoy 41004       2210   45 68  330/ 12/ 16 1025.5
Buoy 41008       2150   44 51  280/  2/  4 1026.9R   3/11   2/ 80/11
Folly Beach CMAN 2200   44     300/  4/  6 1026.7R
Capers NS Buoy   2208   40 48  310/ 14/ 19 1025.5R
Fripp NS Buoy    2208   45 46  320/  8/ 12 1024.8F
5E St. Marys GA  2200      49                N/A     3/11   2/ 90/11


STATION/POSITION TIME  TEMP    WIND        PRES    WAVE   SWELL
                       AIR SEA DIR/SP/G            HT/PER HT/PER/DIR
                 (UTC) (F)     (DEG/KT/KT) (MB)    (FT/S) (FT/S/D)
Frying Pan Buoy  2210   41 65  320/ 14/ 21 1024.4
Buoy 41025       2210   39 42  280/ 17/ 21 1021.6
Cape Lookout NC  2200          280/ 16/ 18 1023.0R
Buoy 41002       2150   54 70  340/ 17/ 25 1021.3R  13/10  10/10
Buoy 41010       NOT AVBL
St Augustine FL  2200   43 49   20/ 13/ 14 1027.0F

$$




USA.gov is the U.S. government's official web portal to all federal, state and local government web resources and services.